Easton, MD

3:47 AM EDT on September 18, 2019 (GMT -0400)
Easton / Newnam

Weather History for KESN - July, 2019

Change the Weather History Date:

Wednesday, July 10, 2019

  Actual Average Record
Temperature  
Mean Temperature 78 °F -  
Max Temperature 87 °F 87 °F 93 °F (1974)
Min Temperature 69 °F 67 °F 54 °F (1963)
Cooling Degree Days 13    
Growing Degree Days 28 (Base 50)    
Moisture  
Dew Point 68 °F    
Average Humidity 76    
Maximum Humidity 100    
Minimum Humidity 48    
Precipitation  
Precipitation 0.00 in - - ()
Sea Level Pressure  
Sea Level Pressure 30.09 in    
Wind  
Wind Speed 2 mph (South)    
Max Wind Speed 10 mph    
Max Gust Speed -    
Visibility 10 miles    
Events      
Averages and records for this station are not official NWS values.
T = Trace of Precipitation, MM = Missing Value Source: NWS Daily Summary

Daily Weather History Graph

Daily Weather History Graph

Search for Another Location

Airport or City:

Astronomy

Jul. 10, 2019 Rise Set
Actual Time 5:47 AM EDT 8:31 PM EDT
Civil Twilight 5:16 AM EDT 9:02 PM EDT
Nautical Twilight 4:37 AM EDT 9:41 PM EDT
Astronomical Twilight 3:52 AM EDT 10:25 PM EDT
Moon 2:37 PM EDT (7/10) 1:23 AM EDT (7/10)
Length of Visible Light 15h 45m
Length of Day
14h 43m
Waxing Gibbous, 63% of the Moon is Illuminated
Jul 10
Waxing Gibbous
Jul 16
Full
Jul 24
Last Quarter
Jul 31
New
Aug 7
First Quarter

Hourly Weather History & Observations

Time (EDT) Temp. Heat Index Dew Point Humidity Pressure Visibility Wind Dir Wind Speed Gust Speed Precip Events Conditions
12:19 AM 73.4 °F - 69.3 °F 87% 30.13 in 10.0 mi Calm Calm - N/A   Clear
12:39 AM 72.7 °F - 68.9 °F 88% 30.12 in 10.0 mi Calm Calm - N/A   Clear
12:59 AM 72.5 °F - 69.3 °F 90% 30.12 in 10.0 mi Calm Calm - N/A   Clear
1:19 AM 72.1 °F - 69.4 °F 91% 30.11 in 10.0 mi Calm Calm - N/A   Clear
1:39 AM 72.0 °F - 69.4 °F 92% 30.11 in 10.0 mi Calm Calm - N/A   Clear
1:59 AM 70.9 °F - 68.9 °F 93% 30.11 in 10.0 mi Calm Calm - N/A   Clear
2:19 AM 71.1 °F - 69.1 °F 93% 30.11 in 10.0 mi SSE 3.5 mph - N/A   Clear
2:39 AM 71.8 °F - 69.3 °F 92% 30.11 in 10.0 mi Calm Calm - N/A   Clear
2:59 AM 71.4 °F - 69.1 °F 92% 30.10 in 10.0 mi Calm Calm - N/A   Clear
3:19 AM 70.9 °F - 68.9 °F 93% 30.10 in 10.0 mi Calm Calm - N/A   Clear
3:39 AM 70.7 °F - 68.9 °F 94% 30.10 in 10.0 mi Calm Calm - N/A   Clear
3:59 AM 70.7 °F - 68.9 °F 94% 30.10 in 10.0 mi Calm Calm - N/A   Clear
4:19 AM 70.9 °F - 69.3 °F 95% 30.10 in 10.0 mi Calm Calm - N/A   Clear
4:39 AM 70.9 °F - 69.1 °F 94% 30.10 in 10.0 mi South 3.5 mph - N/A   Clear
4:59 AM 70.9 °F - 68.9 °F 93% 30.10 in 10.0 mi Calm Calm - N/A   Clear
5:19 AM 70.7 °F - 68.9 °F 94% 30.11 in 10.0 mi Calm Calm - N/A   Clear
5:39 AM 70.2 °F - 68.7 °F 95% 30.11 in 10.0 mi Calm Calm - N/A   Clear
5:41 AM 70.0 °F - 68.4 °F 95% 30.11 in 10.0 mi Calm Calm - N/A   Clear
5:55 AM 69.8 °F - 69.8 °F 100% 30.11 in 10.0 mi Calm Calm - N/A   Scattered Clouds
6:50 AM 71.6 °F - 69.8 °F 94% 30.12 in 10.0 mi Calm Calm - N/A   Scattered Clouds
7:50 AM 77.0 °F - 71.6 °F 83% 30.12 in 10.0 mi South 5.8 mph - N/A   Scattered Clouds
8:53 AM 80.6 °F 84.6 °F 71.6 °F 74% 30.13 in 10.0 mi SW 4.6 mph - N/A   Partly Cloudy
9:50 AM 82.4 °F 86.3 °F 69.8 °F 66% 30.12 in 10.0 mi SSW 4.6 mph - N/A   Partly Cloudy
10:50 AM 84.2 °F 86.6 °F 66.2 °F 55% 30.12 in 10.0 mi SW 5.8 mph - N/A   Scattered Clouds
11:45 AM 86.0 °F 88.2 °F 66.2 °F 51% 30.11 in 10.0 mi SSW 8.1 mph - N/A   Scattered Clouds
12:48 PM 84.2 °F 88.4 °F 69.8 °F 62% 30.11 in 10.0 mi SW 8.1 mph - N/A   Scattered Clouds
1:49 PM 87.8 °F 92.6 °F 69.8 °F 55% 30.10 in 10.0 mi SW 9.2 mph - N/A   Scattered Clouds
2:52 PM 84.2 °F 88.4 °F 69.8 °F 62% 30.09 in 10.0 mi SSW 10.4 mph - N/A   Scattered Clouds
3:54 PM 87.8 °F 92.6 °F 69.8 °F 55% 30.08 in 10.0 mi SW 9.2 mph - N/A   Scattered Clouds
4:50 PM 87.8 °F 90.4 °F 66.2 °F 49% 30.07 in 10.0 mi SW 6.9 mph - N/A   Partly Cloudy
5:50 PM 86.0 °F 88.2 °F 66.2 °F 51% 30.05 in 10.0 mi SW 6.9 mph - N/A   Partly Cloudy
6:54 PM 86.0 °F 87.3 °F 64.4 °F 48% 30.04 in 10.0 mi South 6.9 mph - N/A   Partly Cloudy
7:52 PM 84.2 °F 86.6 °F 66.2 °F 55% 30.04 in 10.0 mi SSE 6.9 mph - N/A   Partly Cloudy
8:50 PM 80.6 °F 82.7 °F 66.2 °F 61% 30.04 in 10.0 mi SSE 6.9 mph - N/A   Partly Cloudy
9:50 PM 78.8 °F - 62.6 °F 57% 30.04 in 10.0 mi SE 4.6 mph - N/A   Partly Cloudy
10:19 PM 76.8 °F - 64.2 °F 65% 30.05 in 10.0 mi SSE 4.6 mph - N/A   Clear
10:39 PM 76.1 °F - 63.7 °F 65% 30.05 in 10.0 mi SSE 4.6 mph - N/A   Clear
10:59 PM 76.1 °F - 62.1 °F 62% 30.04 in 10.0 mi SE 5.8 mph - N/A   Clear
11:19 PM 74.3 °F - 62.6 °F 67% 30.04 in 10.0 mi SE 5.8 mph - N/A   Clear
11:39 PM 75.2 °F - 61.3 °F 62% 30.04 in 10.0 mi SSE 5.8 mph - N/A   Clear
11:59 PM 74.1 °F - 62.1 °F 66% 30.03 in 10.0 mi SE 5.8 mph - N/A   Clear